[[{"header":{"parameterUnit":"m.s-1","parameterCategory":2,"la1":30.2991,"la2":30.254,"lo1":-89.0895,"lo2":-89.0444,"dy":0.0017,"dx":0.0017,"nx":28,"ny":28,"refTime":"2025-04-22T09:00:00:Z","depth":"0","parameterNumber":2,"parameterNumberName":"U-component_of_CURRENTS"},"data":[0,0,0,0,0,0,0,0,0,0,0,0,0,0,0,0,0,0,0,0,0,0,0,0,0,0,0,0,0,0,0,0,0,0,0,0,0,0,0,0,0,0,0,0,0,0,0,0,0,0,0,0,0,0,0,0,0,0,0.2035,0.2036,0,0.2113,0.2114,0.2114,0.2058,0.2056,0.2054,0.2052,0.2035,0.2036,0.2038,0,0,0,0,0,0,0,0,0,0,0,0,0,0.1896,0.1898,0.2035,0.2037,0.2038,0.2113,0.2114,0.2114,0.2059,0.2056,0.2054,0.2051,0.2034,0.2036,0.2038,0,0,0,0,0,0,0,0,0,0,0,0,0,0.1959,0.1899,0.2035,0.2023,0.2023,0.2113,0.2114,0.2115,0.2059,0.2056,0.2053,0.205,0.2034,0.2036,0.2038,0.2112,0,0,0.2044,0.2045,0,0,0,0,0,0,0,0,0.1955,0.1963,0.2023,0.2024,0.2024,0.2077,0.2059,0.2111,0.206,0.204,0.2052,0.2049,0.2046,0.2047,0.2062,0.2111,0.2111,0.2045,0.2046,0.2047,0.2047,0,0,0,0,0,0,0,0.1951,0.196,0.2061,0.2025,0.2026,0.2034,0.2038,0.2069,0.2053,0.2042,0.2039,0.2057,0.2044,0.2061,0.2061,0.211,0.2045,0.2047,0.2048,0.2049,0.2201,0.2204,0,0,0,0,0,0,0.1952,0.1956,0.2059,0.2064,0.1987,0.2039,0.2044,0.2059,0.2055,0.2054,0.2059,0.2054,0.2058,0.2059,0.206,0.2112,0.2047,0.2049,0.205,0.2198,0.2202,0.2205,0,0,0,0,0,0,0.1949,0.1961,0.2055,0.2015,0.2029,0.2045,0.2063,0.2063,0.2079,0.207,0.2065,0.2075,0.2056,0.2057,0.2093,0.2111,0.205,0.2052,0.2195,0.2199,0.2203,0.2237,0,0,0,0,0,0,0.1945,0.1959,0.1974,0.2016,0.2031,0.2122,0.2066,0.2066,0.2097,0.209,0.2084,0.2078,0.2054,0.209,0.2095,0.2113,0.2053,0.2192,0.2197,0.2202,0.2233,0.2242,0.225,0,0,0,0,0,0.1939,0.1979,0.1974,0.1987,0.205,0.2125,0.2134,0.2131,0.2101,0.2129,0.2115,0.2078,0.2126,0.2095,0.21,0.2118,0.2189,0.2195,0.2201,0.2229,0.224,0.225,0,0,0,0,0,0,0.193,0.1979,0.1973,0.2025,0.2075,0.2117,0.2146,0.2148,0.2165,0.2147,0.212,0.2117,0.2155,0.2152,0.2118,0.2183,0.2151,0.2158,0.217,0.2181,0.2189,0.2132,0.2055,0,0,0,0,0,0.1937,0.1971,0.2025,0.2066,0.2092,0.2121,0.215,0.2156,0.2179,0.2182,0.2177,0.2176,0.2192,0.2195,0.2214,0.2258,0.2238,0.2276,0.2285,0.2292,0.2254,0.2269,0.2273,0.2225,0.2225,0.2225,0,0,0.1941,0.1977,0.1992,0.2066,0.2095,0.2136,0.213,0.2186,0.22,0.2181,0.2196,0.2215,0.2216,0.2252,0.2269,0.2244,0.2305,0.23,0.2305,0.2262,0.2275,0.2279,0.2283,0.2229,0.2228,0.2228,0,0,0.1971,0.2002,0.2036,0.208,0.2143,0.2165,0.2186,0.2239,0.224,0.2284,0.2263,0.2287,0.2323,0.2314,0.2315,0.2393,0.2358,0.2418,0.2401,0.2418,0.2421,0.2422,0.243,0.2432,0.2412,0.2412,0.2412,0,0.1969,0.2017,0.2063,0.2107,0.2133,0.2175,0.221,0.2237,0.2289,0.2285,0.2288,0.2326,0.2338,0.2348,0.2371,0.2404,0.2408,0.2354,0.2424,0.2425,0.2426,0.2433,0.2434,0.2415,0.2414,0.2414,0.2414,0,0.2019,0.2056,0.2087,0.2136,0.2176,0.2227,0.2264,0.2293,0.23,0.2311,0.234,0.2368,0.2371,0.2405,0.2404,0.2428,0.2429,0.2438,0.2382,0.2432,0.2438,0.2439,0.2418,0.2417,0.2416,0.2416,0,0,0.1999,0.2099,0.2101,0.2118,0.2192,0.2225,0.2254,0.2286,0.2276,0.2328,0.2314,0.2367,0.2371,0.2373,0.2397,0.2411,0.2446,0.2424,0.2424,0.2403,0.2479,0.2449,0.2446,0.2471,0.2471,0.2471,0.2489,0,0.2012,0.2088,0.2129,0.217,0.2205,0.2238,0.2252,0.2278,0.2295,0.23,0.2322,0.2334,0.2364,0.2372,0.2393,0.2429,0.2446,0.2439,0.2456,0.2456,0.2399,0.2445,0.2284,0.2283,0.2489,0.2489,0.2489,0,0.2024,0.2074,0.2126,0.2168,0.2181,0.22,0.2204,0.223,0.2244,0.2254,0.2266,0.2285,0.2308,0.2337,0.2387,0.2385,0.2425,0.2454,0.2456,0.2399,0.2425,0.2265,0.2276,0.2101,0.249,0.249,0.249,0,0.1971,0.2052,0.2085,0.2108,0.2173,0.217,0.2189,0.2204,0.2207,0.222,0.2217,0.2248,0.226,0.2312,0.2372,0.2386,0.2423,0.2454,0.2459,0.2458,0.2303,0.2288,0.2109,0.2483,0.2483,0.2483,0.2482,0,0.1962,0.1979,0.206,0.2078,0.2081,0.2131,0.2118,0.2137,0.2153,0.2145,0.2186,0.2185,0.2256,0.2288,0.2352,0.2395,0.2411,0.244,0.2456,0.2318,0.2305,0.213,0.2088,0.2483,0.2483,0.2483,0.2483,0,0.1899,0.1963,0.1995,0.2056,0.2063,0.2059,0.2081,0.2073,0.2097,0.2088,0.2092,0.2135,0.2181,0.2245,0.2323,0.2359,0.231,0.2428,0.2256,0.225,0.2096,0.2064,0.1917,0.188,0.2432,0.2431,0.2431,0,0.1879,0.1899,0.1959,0.1967,0.1991,0.1997,0.1997,0.2035,0.2033,0.2057,0.2049,0.2087,0.2113,0.2201,0.2256,0.2333,0.2257,0.2228,0.2225,0.2039,0.2016,0.1979,0.1957,0.2048,0.2044,0.2041,0.2038,0,0.1832,0.1855,0.1885,0.1905,0.1911,0.1916,0.1924,0.192,0.1957,0.1954,0.1963,0.1988,0.2058,0.2058,0.2145,0.2173,0.2042,0.2171,0.2008,0.1711,0.1625,0.1612,0.2088,0.2011,0.2014,0.2016,0.2018,0.2019,0.1783,0.1787,0.1829,0.1831,0.184,0.1833,0.181,0.1828,0.1821,0.18,0.1862,0.1854,0.1845,0.1948,0.1945,0.1763,0.1904,0.1684,0.1668,0.1654,0.1571,0.199,0.1921,0.1923,0.1925,0.1926,0.1928,0,0.1714,0.1737,0.175,0.1755,0.1731,0.176,0.1753,0.1718,0.1689,0.1698,0.1691,0.1625,0.1555,0.1517,0.1371,0.1252,0.1226,0.1161,0.1015,0.1036,0.1395,0.1326,0.1086,0.1086,0.1086,0.1087,0.1087,0.1087,0.1684,0.1675,0.1687,0.1643,0.1641,0.1577,0.1561,0.1531,0.1524,0.1445,0.1394,0.1394,0.1264,0.0954,0.0701,0.0682,0.0591,0.055,0.0625,0.0776,0.0821,0.0864,0.0782,0.0433,0.0432,0.0185,0.0183,0.0181]},{"header":{"parameterUnit":"m.s-1","parameterCategory":2,"la1":30.2991,"la2":30.254,"lo1":-89.0895,"lo2":-89.0444,"dy":0.0017,"dx":0.0017,"nx":28,"ny":28,"refTime":"2025-04-22T09:00:00:Z","depth":"0","parameterNumber":3,"parameterNumberName":"V-component_of_CURRENTS"},"data":[0,0,0,0,0,0,0,0,0,0,0,0,0,0,0,0,0,0,0,0,0,0,0,0,0,0,0,0,0,0,0,0,0,0,0,0,0,0,0,0,0,0,0,0,0,0,0,0,0,0,0,0,0,0,0,0,0,0,0.0074,0.0074,0,0.0125,0.0126,0.0126,0.0176,0.0176,0.0177,0.0177,0.0185,0.0185,0.0185,0,0,0,0,0,0,0,0,0,0,0,0,0,-0.0031,-0.0029,0.0074,0.0074,0.0075,0.0125,0.0126,0.0127,0.0176,0.0176,0.0177,0.0178,0.0185,0.0185,0.0185,0,0,0,0,0,0,0,0,0,0,0,0,0,0.0017,-0.0029,0.0074,0.0106,0.0109,0.0125,0.0126,0.0127,0.0175,0.0176,0.0177,0.0178,0.0186,0.0185,0.0185,0.0163,0,0,0.0183,0.0183,0,0,0,0,0,0,0,0,0.0014,0.0021,0.01,0.0103,0.0107,0.0145,0.0092,0.0137,0.0175,0.015,0.0177,0.0179,0.0167,0.0168,0.0176,0.0163,0.0163,0.0183,0.0182,0.0182,0.0182,0,0,0,0,0,0,0,0.0011,0.0018,0.0094,0.0101,0.0105,0.01,0.0108,0.01,0.0152,0.0152,0.0156,0.0161,0.0169,0.0177,0.0177,0.0163,0.0183,0.0182,0.0182,0.0182,0.0154,0.0153,0,0,0,0,0,0,0.0006,0.0016,0.0093,0.0096,0.0062,0.0101,0.0111,0.0132,0.0153,0.0158,0.0161,0.0163,0.0177,0.0177,0.0177,0.0162,0.0182,0.0182,0.0181,0.0154,0.0154,0.0153,0,0,0,0,0,0,0.0004,0.0013,0.0091,0.0055,0.0065,0.0103,0.0126,0.0132,0.0145,0.016,0.0164,0.0167,0.0178,0.0178,0.0168,0.0162,0.0181,0.0181,0.0155,0.0154,0.0154,0.0124,0,0,0,0,0,0,0.0001,0.0012,0.002,0.0056,0.0067,0.0092,0.0125,0.0133,0.0146,0.0151,0.0166,0.0168,0.0179,0.0168,0.0167,0.0161,0.0181,0.0155,0.0154,0.0154,0.0125,0.0122,0.012,0,0,0,0,0,-0.0003,0.0006,0.002,0.0029,0.0079,0.0091,0.0096,0.0125,0.0146,0.0141,0.0155,0.0167,0.0163,0.0167,0.0166,0.016,0.0156,0.0155,0.0154,0.0127,0.0123,0.012,0,0,0,0,0,0,-0.0028,0.0013,0.0029,0.0053,0.0065,0.0099,0.01,0.0121,0.013,0.0136,0.0154,0.0156,0.0149,0.0154,0.0158,0.0151,0.0164,0.0163,0.0144,0.014,0.0138,0.0146,0.018,0,0,0,0,0,-0.0033,-0.0016,0.0015,0.0033,0.0036,0.0066,0.0074,0.0094,0.011,0.0117,0.0127,0.0138,0.0142,0.0141,0.0143,0.0129,0.0152,0.0128,0.0125,0.0122,0.0128,0.017,0.0172,0.015,0.015,0.015,0,0,-0.0036,-0.0013,-0.0001,0.0027,0.004,0.0037,0.0073,0.0083,0.0084,0.0112,0.011,0.0124,0.0136,0.0129,0.0127,0.0133,0.0134,0.0121,0.0119,0.0126,0.017,0.0172,0.0174,0.015,0.015,0.015,0,0,-0.0053,-0.0018,-0.0022,-0.0016,-0.0001,0.0017,0.0017,0.0042,0.0056,0.0052,0.008,0.0094,0.0087,0.0107,0.0114,0.0094,0.0119,0.009,0.008,0.012,0.0123,0.0126,0.0132,0.0136,0.0088,0.0088,0.0088,0,-0.0061,-0.0054,-0.0025,-0.0036,-0.0029,0.0004,-0.0007,0.0005,0.0025,0.004,0.0043,0.0075,0.0081,0.0098,0.0091,0.0089,0.0106,0.0091,0.0118,0.0121,0.0125,0.0131,0.0135,0.0087,0.0087,0.0087,0.0087,0,-0.0094,-0.0087,-0.0091,-0.0088,-0.0081,-0.0082,-0.0061,-0.0053,-0.0031,-0.0008,0.0014,0.0032,0.006,0.0059,0.0065,0.0091,0.0091,0.0111,0.0129,0.0125,0.0131,0.0137,0.0084,0.0085,0.0085,0.0086,0,0,-0.0111,-0.0113,-0.0115,-0.0114,-0.0104,-0.0095,-0.0098,-0.0078,-0.0055,-0.0042,-0.0009,-0.0002,0.0033,0.0043,0.0064,0.0091,0.0114,0.0105,0.0108,0.0114,0.0181,0.0184,0.0189,0.0143,0.0145,0.0146,0.0166,0,-0.0146,-0.017,-0.0161,-0.0173,-0.0177,-0.0146,-0.0142,-0.0115,-0.0086,-0.0049,-0.0011,0.002,0.0019,0.0044,0.0069,0.0119,0.013,0.0105,0.0181,0.0183,0.019,0.0197,0.0278,0.0305,0.0172,0.0172,0.0173,0,-0.0186,-0.019,-0.0212,-0.019,-0.0189,-0.0191,-0.0149,-0.0141,-0.0086,-0.0058,-0.0016,0.0023,0.0067,0.0071,0.0138,0.0123,0.0141,0.0169,0.0171,0.0193,0.0197,0.0292,0.032,0.034,0.0181,0.0181,0.018,0,-0.0203,-0.0218,-0.023,-0.0228,-0.021,-0.0202,-0.0187,-0.014,-0.011,-0.0053,-0.0013,0.0039,0.0084,0.0123,0.0167,0.016,0.0241,0.0244,0.0254,0.0253,0.0348,0.0354,0.0413,0.0281,0.0281,0.0281,0.0281,0,-0.023,-0.0234,-0.0238,-0.0238,-0.0229,-0.0213,-0.0183,-0.0157,-0.0102,-0.005,-0.0013,0.0044,0.0104,0.0157,0.0179,0.0234,0.025,0.0256,0.0269,0.0335,0.0339,0.0381,0.0362,0.0281,0.0281,0.0281,0.0281,0,-0.0235,-0.0246,-0.0248,-0.0241,-0.0236,-0.0224,-0.018,-0.0145,-0.0106,-0.0035,-0.0012,0.0064,0.014,0.0182,0.0256,0.026,0.0331,0.0311,0.0362,0.038,0.0406,0.0382,0.0442,0.0459,0.0334,0.0335,0.0335,0,-0.0235,-0.0245,-0.0245,-0.0237,-0.0232,-0.0212,-0.0183,-0.0146,-0.0103,-0.0016,0.0028,0.0108,0.0191,0.0281,0.0332,0.0376,0.0361,0.0425,0.0429,0.0423,0.0406,0.039,0.0399,0.0532,0.0534,0.0535,0.0536,0,-0.023,-0.0237,-0.0237,-0.0226,-0.0207,-0.0174,-0.0137,-0.0104,-0.0044,0.0023,0.0118,0.0187,0.0291,0.0411,0.0448,0.0465,0.0463,0.0456,0.0467,0.0577,0.0551,0.057,0.0466,0.055,0.0549,0.0548,0.0547,0.0547,-0.0215,-0.0219,-0.0225,-0.0209,-0.0183,-0.0136,-0.01,-0.0043,0.0034,0.0145,0.0196,0.0333,0.0464,0.0564,0.0568,0.0624,0.0565,0.0635,0.0606,0.059,0.0614,0.051,0.0596,0.0595,0.0594,0.0593,0.0592,0,-0.0193,-0.0207,-0.0201,-0.0179,-0.0144,-0.0132,-0.0063,-0.0015,0.0081,0.0213,0.0318,0.0533,0.0667,0.0731,0.0814,0.08,0.0791,0.0767,0.0791,0.0791,0.074,0.0757,0.0862,0.0862,0.0862,0.0862,0.0862,0.0862,-0.0179,-0.0188,-0.0196,-0.0152,-0.0127,-0.0072,-0.003,0.0048,0.0147,0.0338,0.0496,0.0612,0.0737,0.0853,0.0913,0.0902,0.0891,0.0884,0.0826,0.0815,0.0801,0.0788,0.0803,0.0916,0.0916,0.0942,0.0943,0.0943]}],[{"header":{"parameterUnit":"m.s-1","parameterCategory":2,"la1":30.2991,"la2":30.254,"lo1":-89.0895,"lo2":-89.0444,"dy":0.0017,"dx":0.0017,"nx":28,"ny":28,"refTime":"2025-04-22T09:00:00:Z","depth":"2","parameterNumber":2,"parameterNumberName":"U-component_of_CURRENTS"},"data":[0,0,0,0,0,0,0,0,0,0,0,0,0,0,0,0,0,0,0,0,0,0,0,0,0,0,0,0,0,0,0,0,0,0,0,0,0,0,0,0,0,0,0,0,0,0,0,0,0,0,0,0,0,0,0,0,0,0,0.1043,0.1043,0,0.0996,0.0995,0.0994,0.0997,0.0998,0.0999,0.1,0.1031,0.1031,0.103,0,0,0,0,0,0,0,0,0,0,0,0,0,0.0989,0.0991,0.1043,0.1043,0.1043,0.0996,0.0995,0.0994,0.0997,0.0998,0.0999,0.1,0.1031,0.1031,0.103,0,0,0,0,0,0,0,0,0,0,0,0,0,0.0981,0.0991,0.1043,0.1042,0.1041,0.0997,0.0995,0.0994,0.0996,0.0998,0.0999,0.1001,0.1031,0.1031,0.103,0.0997,0,0,0.103,0.1029,0,0,0,0,0,0,0,0,0.0981,0.0982,0.1042,0.1042,0.1041,0.1008,0.0988,0.1,0.0996,0.1009,0.1,0.1002,0.1032,0.1032,0.1012,0.0998,0.0999,0.103,0.1029,0.1029,0.1029,0,0,0,0,0,0,0,0.0982,0.0983,0.102,0.1042,0.1041,0.0993,0.0995,0.0989,0.101,0.1008,0.1009,0.101,0.1032,0.1012,0.1013,0.1,0.103,0.1029,0.1029,0.1029,0.1065,0.1066,0,0,0,0,0,0,0.1003,0.0985,0.1022,0.1019,0.102,0.0994,0.0995,0.1013,0.1008,0.101,0.1009,0.101,0.1012,0.1013,0.1014,0.1076,0.1029,0.1029,0.1029,0.1064,0.1065,0.1066,0,0,0,0,0,0,0.1002,0.1007,0.1024,0.1003,0.1003,0.0995,0.1014,0.1012,0.1031,0.1009,0.1012,0.1036,0.1013,0.1015,0.1032,0.1074,0.1029,0.1029,0.1062,0.1064,0.1066,0.1136,0,0,0,0,0,0,0.1001,0.1008,0.1033,0.1005,0.1005,0.1031,0.1013,0.101,0.1029,0.1031,0.1032,0.1034,0.1014,0.1032,0.1031,0.1073,0.1028,0.1061,0.1063,0.1065,0.1132,0.114,0.1146,0,0,0,0,0,0.0999,0.104,0.1035,0.1039,0.1039,0.1032,0.1028,0.1022,0.1029,0.1044,0.1037,0.1036,0.1046,0.1032,0.1031,0.1074,0.106,0.1063,0.1065,0.1129,0.1138,0.1146,0,0,0,0,0,0,0.1045,0.1043,0.1037,0.108,0.1069,0.1035,0.1056,0.1044,0.1046,0.1063,0.1038,0.1039,0.1068,0.1059,0.1045,0.109,0.1058,0.106,0.1107,0.1115,0.1122,0.1137,0.1028,0,0,0,0,0,0.1062,0.1091,0.107,0.111,0.111,0.1085,0.1086,0.1083,0.1075,0.1079,0.1074,0.1074,0.1069,0.1085,0.1074,0.1099,0.1116,0.1129,0.1137,0.1143,0.1154,0.1205,0.1218,0.1075,0.1074,0.1074,0,0,0.1098,0.1096,0.1119,0.112,0.1114,0.1114,0.1091,0.1114,0.1117,0.1083,0.1105,0.1095,0.1077,0.1097,0.1113,0.1104,0.1196,0.1146,0.1151,0.1159,0.1209,0.1224,0.1236,0.1076,0.1076,0.1076,0,0,0.1166,0.1179,0.1214,0.1202,0.1199,0.1171,0.1188,0.1171,0.1174,0.1182,0.1157,0.1176,0.1173,0.1166,0.1161,0.1204,0.1222,0.1213,0.1274,0.1324,0.1336,0.1348,0.1406,0.1422,0.1228,0.1228,0.1228,0,0.1212,0.1238,0.1225,0.1237,0.1232,0.1204,0.1221,0.1209,0.12,0.1206,0.1211,0.1211,0.1204,0.1219,0.1236,0.1223,0.1258,0.1243,0.1335,0.1346,0.1357,0.1413,0.143,0.1232,0.1232,0.1231,0.1231,0,0.128,0.1298,0.1321,0.1317,0.131,0.1327,0.1296,0.1303,0.1303,0.1289,0.1318,0.1303,0.1311,0.1314,0.129,0.1356,0.1359,0.133,0.1317,0.1376,0.1432,0.1448,0.1237,0.1236,0.1235,0.1234,0,0,0.138,0.1371,0.1379,0.1368,0.135,0.1344,0.1358,0.1347,0.1358,0.1372,0.14,0.1402,0.141,0.1406,0.1389,0.1435,0.1543,0.1429,0.1429,0.1494,0.1677,0.16,0.161,0.1538,0.1541,0.1543,0.1693,0,0.1433,0.1459,0.1441,0.1452,0.1449,0.1418,0.1419,0.1411,0.141,0.1429,0.144,0.1459,0.1439,0.146,0.1505,0.1511,0.1586,0.1506,0.1604,0.1607,0.1537,0.1626,0.1364,0.1468,0.1709,0.1711,0.1713,0,0.1486,0.1486,0.1517,0.1482,0.1484,0.1493,0.148,0.1481,0.1492,0.1502,0.1537,0.1535,0.1589,0.1573,0.1666,0.162,0.1674,0.1692,0.1697,0.1611,0.156,0.1444,0.1488,0.174,0.1738,0.1736,0.1734,0,0.1517,0.1524,0.1544,0.1538,0.1514,0.1533,0.1525,0.1523,0.1521,0.1565,0.1583,0.1633,0.1668,0.1734,0.1767,0.1739,0.1875,0.1833,0.1828,0.1824,0.161,0.1581,0.1949,0.1949,0.1948,0.1948,0.1948,0,0.155,0.1562,0.1567,0.1573,0.1588,0.157,0.1595,0.1591,0.1606,0.1615,0.1638,0.166,0.1715,0.1774,0.1817,0.1868,0.1926,0.1866,0.1864,0.1627,0.1599,0.1827,0.1811,0.1954,0.1952,0.1951,0.195,0,0.1581,0.1589,0.1598,0.16,0.1605,0.1623,0.1626,0.1631,0.1649,0.167,0.1691,0.1714,0.1792,0.1843,0.1946,0.192,0.198,0.1998,0.172,0.1681,0.1892,0.1878,0.2012,0.2011,0.201,0.2009,0.2008,0,0.1599,0.1613,0.1625,0.1636,0.165,0.1669,0.1673,0.1668,0.1669,0.1687,0.1697,0.1775,0.1801,0.1905,0.1863,0.1928,0.2025,0.1747,0.1636,0.1918,0.1903,0.189,0.1877,0.1397,0.1391,0.1386,0.1383,0,0.1624,0.1643,0.1654,0.1671,0.1688,0.1681,0.1693,0.1687,0.1679,0.1688,0.1702,0.1728,0.1761,0.1649,0.1698,0.1706,0.1699,0.1654,0.2035,0.1409,0.1345,0.1328,0.1334,0.1341,0.1345,0.1348,0.135,0.1352,0.1653,0.1665,0.1684,0.1691,0.1701,0.1685,0.1662,0.1663,0.1648,0.1585,0.165,0.1549,0.1495,0.1389,0.1384,0.1351,0.1502,0.1408,0.1419,0.1436,0.1325,0.1262,0.1223,0.1226,0.1229,0.1232,0.1234,0,0.1652,0.1672,0.1691,0.1687,0.1672,0.1678,0.1652,0.1593,0.1555,0.1463,0.1443,0.1137,0.1051,0.104,0.0875,0.09,0.0872,0.0903,0.0809,0.0849,0.0886,0.0745,0.049,0.0489,0.0487,0.0486,0,0,0.166,0.1671,0.1669,0.1644,0.1638,0.157,0.1534,0.1456,0.1358,0.1132,0.0948,0.0967,0.0924,0.0648,0.0644,0.0535,0.0707,0.0519,0.1099,0.1025,0.106,0.1145,0.0969,0,0,0,0,0]},{"header":{"parameterUnit":"m.s-1","parameterCategory":2,"la1":30.2991,"la2":30.254,"lo1":-89.0895,"lo2":-89.0444,"dy":0.0017,"dx":0.0017,"nx":28,"ny":28,"refTime":"2025-04-22T09:00:00:Z","depth":"2","parameterNumber":3,"parameterNumberName":"V-component_of_CURRENTS"},"data":[0,0,0,0,0,0,0,0,0,0,0,0,0,0,0,0,0,0,0,0,0,0,0,0,0,0,0,0,0,0,0,0,0,0,0,0,0,0,0,0,0,0,0,0,0,0,0,0,0,0,0,0,0,0,0,0,0,0,-0.0603,-0.0603,0,-0.0574,-0.0574,-0.0574,-0.0571,-0.0572,-0.0572,-0.0572,-0.0533,-0.0532,-0.0531,0,0,0,0,0,0,0,0,0,0,0,0,0,-0.0689,-0.0687,-0.0603,-0.0603,-0.0602,-0.0574,-0.0574,-0.0574,-0.0571,-0.0572,-0.0572,-0.0573,-0.0534,-0.0532,-0.0531,0,0,0,0,0,0,0,0,0,0,0,0,0,-0.0655,-0.0686,-0.0603,-0.0598,-0.0597,-0.0574,-0.0574,-0.0573,-0.0571,-0.0572,-0.0572,-0.0573,-0.0534,-0.0532,-0.053,-0.0508,0,0,-0.0524,-0.0523,0,0,0,0,0,0,0,0,-0.0657,-0.0652,-0.0599,-0.0598,-0.0597,-0.0577,-0.059,-0.0551,-0.0571,-0.0581,-0.0572,-0.0573,-0.0547,-0.0544,-0.0537,-0.0506,-0.0505,-0.0524,-0.0523,-0.0522,-0.0521,0,0,0,0,0,0,0,-0.0659,-0.0653,-0.0592,-0.0599,-0.0598,-0.0608,-0.0604,-0.0583,-0.0561,-0.058,-0.058,-0.0577,-0.0546,-0.0539,-0.0536,-0.0504,-0.0524,-0.0522,-0.0521,-0.052,-0.0514,-0.0515,0,0,0,0,0,0,-0.066,-0.0655,-0.0593,-0.0591,-0.0629,-0.0606,-0.0601,-0.0583,-0.0562,-0.0559,-0.0576,-0.0577,-0.0542,-0.0539,-0.0535,-0.0542,-0.0522,-0.052,-0.0519,-0.0513,-0.0515,-0.0516,0,0,0,0,0,0,-0.0662,-0.0654,-0.0594,-0.0624,-0.0617,-0.0604,-0.0584,-0.0582,-0.0587,-0.0559,-0.0556,-0.0585,-0.0543,-0.0538,-0.0537,-0.0539,-0.0519,-0.0517,-0.0512,-0.0514,-0.0515,-0.0533,0,0,0,0,0,0,-0.0664,-0.0654,-0.0652,-0.0623,-0.0615,-0.0583,-0.0583,-0.0581,-0.0584,-0.0584,-0.0564,-0.0561,-0.0543,-0.054,-0.0535,-0.0536,-0.0516,-0.0511,-0.0513,-0.0515,-0.0531,-0.0535,-0.0539,0,0,0,0,0,-0.0667,-0.0657,-0.0652,-0.0645,-0.0608,-0.0583,-0.058,-0.0574,-0.0584,-0.0581,-0.0582,-0.0562,-0.0549,-0.0539,-0.0533,-0.0533,-0.051,-0.0512,-0.0514,-0.053,-0.0534,-0.0538,0,0,0,0,0,0,-0.0694,-0.0655,-0.0649,-0.0628,-0.061,-0.0583,-0.0583,-0.0581,-0.0579,-0.0587,-0.0569,-0.0565,-0.0564,-0.0553,-0.0543,-0.0542,-0.0528,-0.0529,-0.0542,-0.0546,-0.055,-0.0538,-0.0514,0,0,0,0,0,-0.0697,-0.068,-0.0648,-0.0634,-0.0625,-0.0608,-0.0603,-0.0596,-0.0586,-0.0587,-0.0579,-0.0575,-0.0566,-0.0562,-0.0551,-0.0545,-0.0514,-0.0546,-0.055,-0.0553,-0.0541,-0.051,-0.0509,-0.0523,-0.0523,-0.0523,0,0,-0.0704,-0.0682,-0.0673,-0.0639,-0.0626,-0.0606,-0.0606,-0.0596,-0.0589,-0.0581,-0.0583,-0.0584,-0.057,-0.0566,-0.0565,-0.0558,-0.0532,-0.0556,-0.0558,-0.0545,-0.0512,-0.0511,-0.0509,-0.0525,-0.0525,-0.0524,0,0,-0.0704,-0.0689,-0.0673,-0.0654,-0.0633,-0.0619,-0.0619,-0.06,-0.0603,-0.0602,-0.06,-0.0604,-0.0595,-0.0582,-0.0575,-0.0592,-0.0553,-0.06,-0.0603,-0.0574,-0.0571,-0.0569,-0.0521,-0.0514,-0.0602,-0.0602,-0.0602,0,-0.0712,-0.0686,-0.0668,-0.0647,-0.0634,-0.0625,-0.0607,-0.0602,-0.0592,-0.0595,-0.0608,-0.0604,-0.0596,-0.058,-0.0596,-0.0595,-0.0571,-0.0584,-0.0575,-0.0573,-0.057,-0.0521,-0.0513,-0.0603,-0.0603,-0.0603,-0.0603,0,-0.0697,-0.0678,-0.0668,-0.0634,-0.0621,-0.0605,-0.0588,-0.059,-0.0603,-0.0599,-0.0604,-0.0602,-0.0599,-0.0605,-0.0606,-0.0589,-0.0575,-0.0581,-0.0557,-0.0569,-0.0517,-0.0508,-0.0605,-0.0604,-0.0604,-0.0604,0,0,-0.069,-0.0662,-0.0658,-0.0644,-0.0613,-0.0598,-0.059,-0.0575,-0.0575,-0.0584,-0.058,-0.0587,-0.0599,-0.0593,-0.0596,-0.0577,-0.0542,-0.0579,-0.0577,-0.0517,-0.0464,-0.0374,-0.0355,-0.0551,-0.055,-0.0549,-0.0432,0,-0.0678,-0.0651,-0.0638,-0.061,-0.0589,-0.0579,-0.0571,-0.0563,-0.0567,-0.0563,-0.0567,-0.0564,-0.059,-0.0594,-0.0582,-0.0552,-0.0522,-0.0572,-0.0472,-0.0469,-0.0376,-0.0343,-0.0321,-0.0209,-0.0423,-0.0422,-0.0421,0,-0.0654,-0.0642,-0.0623,-0.0597,-0.0588,-0.0581,-0.0568,-0.056,-0.055,-0.0554,-0.0555,-0.0553,-0.0534,-0.0556,-0.0497,-0.0531,-0.0499,-0.0473,-0.0468,-0.0367,-0.0362,-0.0235,-0.0184,-0.0406,-0.0407,-0.0408,-0.0409,0,-0.0648,-0.0621,-0.0615,-0.0603,-0.0579,-0.0584,-0.058,-0.0571,-0.0556,-0.0549,-0.0527,-0.0521,-0.0496,-0.0473,-0.0428,-0.0465,-0.0341,-0.0382,-0.0261,-0.0254,-0.0204,-0.0193,-0.0323,-0.0323,-0.0323,-0.0324,-0.0324,0,-0.0622,-0.0605,-0.0622,-0.0611,-0.0606,-0.0597,-0.059,-0.0583,-0.0563,-0.0521,-0.053,-0.0477,-0.0475,-0.0408,-0.0394,-0.0278,-0.0309,-0.0235,-0.021,-0.0209,-0.0201,-0.0356,-0.0362,-0.0319,-0.032,-0.0321,-0.0322,0,-0.0588,-0.06,-0.0586,-0.0594,-0.0599,-0.06,-0.0585,-0.0566,-0.0556,-0.0494,-0.0483,-0.0428,-0.0329,-0.0292,-0.0219,-0.02,-0.0124,-0.0075,-0.0059,-0.0034,-0.0069,-0.0078,0.0066,0.007,0.0074,0.0077,0.0079,0,-0.0558,-0.0557,-0.0578,-0.0575,-0.058,-0.0585,-0.0572,-0.0568,-0.0536,-0.0445,-0.0398,-0.0292,-0.0175,-0.0024,0.0034,0.0127,0.003,0.017,0.0105,-0.0034,-0.0026,-0.004,-0.0053,0.016,0.0163,0.0165,0.0167,0,-0.0498,-0.0525,-0.0522,-0.053,-0.0532,-0.0515,-0.0503,-0.0474,-0.0436,-0.0361,-0.0235,-0.0131,0.0043,0.0172,0.0291,0.0316,0.0151,0.0228,0.0092,0.0062,0.0066,0.007,0.0052,0.0189,0.0187,0.0186,0.0184,0.0183,-0.0449,-0.045,-0.0467,-0.0468,-0.0461,-0.0432,-0.0407,-0.0357,-0.0277,-0.0112,-0.0063,0.0147,0.0238,0.0487,0.0466,0.0406,0.0409,0.0349,0.0336,0.0322,0.0316,0.0326,0.0499,0.0498,0.0498,0.0498,0.0498,0,-0.0375,-0.0392,-0.0393,-0.0395,-0.037,-0.0383,-0.0336,-0.0283,-0.0163,0.0046,0.0207,0.0405,0.0554,0.0566,0.0539,0.0532,0.0453,0.0464,0.0349,0.0333,0.0317,0.0303,0.0486,0.0485,0.0484,0.0484,0,0,-0.033,-0.0329,-0.0352,-0.0313,-0.0303,-0.0261,-0.0228,-0.0131,0.0004,0.0269,0.0455,0.071,0.0699,0.0684,0.0627,0.0531,0.0417,0.0507,0.0536,0.0394,0.0376,0.0293,0.0262,0,0,0,0,0]}],[{"header":{"parameterUnit":"m.s-1","parameterCategory":2,"la1":30.2991,"la2":30.254,"lo1":-89.0895,"lo2":-89.0444,"dy":0.0017,"dx":0.0017,"nx":28,"ny":28,"refTime":"2025-04-22T09:00:00:Z","depth":"4","parameterNumber":2,"parameterNumberName":"U-component_of_CURRENTS"},"data":[0,0,0,0,0,0,0,0,0,0,0,0,0,0,0,0,0,0,0,0,0,0,0,0,0,0,0,0,0,0,0,0,0,0,0,0,0,0,0,0,0,0,0,0,0,0,0,0,0,0,0,0,0,0,0,0,0,0,-0.0238,-0.0238,0,-0.0222,-0.0222,-0.0221,-0.0203,-0.0203,-0.0203,-0.0203,-0.0177,-0.0177,-0.0176,0,0,0,0,0,0,0,0,0,0,0,0,0,-0.0213,-0.0214,-0.0238,-0.0238,-0.0238,-0.0222,-0.0222,-0.0221,-0.0203,-0.0203,-0.0203,-0.0203,-0.0178,-0.0177,-0.0176,0,0,0,0,0,0,0,0,0,0,0,0,0,-0.0211,-0.0214,-0.0238,-0.0229,-0.0228,-0.0222,-0.0222,-0.0221,-0.0203,-0.0203,-0.0203,-0.0203,-0.0178,-0.0177,-0.0176,-0.0171,0,0,-0.0173,-0.0173,0,0,0,0,0,0,0,0,-0.0211,-0.0211,-0.023,-0.023,-0.0229,-0.0217,-0.0204,-0.0205,-0.0203,-0.021,-0.0203,-0.0203,-0.0192,-0.019,-0.0183,-0.0169,-0.0168,-0.0173,-0.0172,-0.0172,-0.0172,0,0,0,0,0,0,0,-0.0211,-0.0212,-0.0229,-0.0231,-0.023,-0.0213,-0.0212,-0.0203,-0.0199,-0.0209,-0.0208,-0.0211,-0.0191,-0.0184,-0.0182,-0.0168,-0.0173,-0.0172,-0.0171,-0.0171,-0.0121,-0.0121,0,0,0,0,0,0,-0.0221,-0.0212,-0.0229,-0.0229,-0.0223,-0.0214,-0.0213,-0.0219,-0.0199,-0.0197,-0.0211,-0.021,-0.0185,-0.0183,-0.0181,-0.0135,-0.0172,-0.0171,-0.017,-0.0122,-0.0121,-0.012,0,0,0,0,0,0,-0.0221,-0.0223,-0.023,-0.0222,-0.0222,-0.0215,-0.0221,-0.0218,-0.0214,-0.0201,-0.0198,-0.021,-0.0185,-0.0183,-0.017,-0.0135,-0.0171,-0.017,-0.0123,-0.0122,-0.0121,-0.0067,0,0,0,0,0,0,-0.022,-0.0223,-0.0229,-0.0223,-0.0223,-0.0229,-0.0221,-0.0218,-0.0217,-0.0215,-0.0199,-0.0196,-0.0185,-0.0172,-0.017,-0.0134,-0.0169,-0.0124,-0.0122,-0.0121,-0.0069,-0.0064,-0.0059,0,0,0,0,0,-0.0219,-0.0228,-0.023,-0.0232,-0.0233,-0.0229,-0.0227,-0.0219,-0.0217,-0.0214,-0.0201,-0.0197,-0.0161,-0.0171,-0.0168,-0.0132,-0.0125,-0.0123,-0.0121,-0.0072,-0.0065,-0.0059,0,0,0,0,0,0,-0.0215,-0.0227,-0.0229,-0.024,-0.0237,-0.0227,-0.023,-0.0222,-0.0209,-0.0212,-0.0194,-0.019,-0.0167,-0.0164,-0.0175,-0.0115,-0.014,-0.0137,-0.0103,-0.0096,-0.0091,-0.0076,-0.0168,0,0,0,0,0,-0.022,-0.0233,-0.0235,-0.0242,-0.0246,-0.0238,-0.0237,-0.0232,-0.0222,-0.0217,-0.0201,-0.0183,-0.0158,-0.0141,-0.0132,-0.01,-0.0091,-0.0074,-0.0069,-0.0064,-0.0051,-0.0005,0.0007,-0.0115,-0.0115,-0.0115,0,0,-0.0219,-0.023,-0.0235,-0.0243,-0.0244,-0.024,-0.0237,-0.024,-0.0225,-0.0217,-0.0193,-0.0176,-0.0151,-0.0114,-0.0101,-0.0103,-0.0029,-0.0062,-0.0058,-0.0047,-0.0002,0.001,0.0021,-0.0114,-0.0114,-0.0114,0,0,-0.0225,-0.0237,-0.0249,-0.025,-0.0258,-0.0248,-0.0251,-0.0242,-0.0229,-0.0206,-0.019,-0.0151,-0.0124,-0.0083,-0.0061,-0.0025,-0.0015,-0.0021,0.0036,0.0081,0.0092,0.0102,0.0114,0.0124,-0.0003,-0.0003,-0.0003,0,-0.0218,-0.0237,-0.0249,-0.0258,-0.0253,-0.0252,-0.0248,-0.0235,-0.0217,-0.0198,-0.0198,-0.0123,-0.0102,-0.003,-0.0001,-0.0009,0.0007,0.0014,0.009,0.01,0.0109,0.0119,0.013,0.0,-0.0,-0.0001,-0.0001,0,-0.0231,-0.0243,-0.0251,-0.0258,-0.0252,-0.0253,-0.0238,-0.0224,-0.0204,-0.0181,-0.0124,-0.0082,-0.002,-0.0006,0.0019,0.0104,0.0089,0.008,0.0078,0.0125,0.0132,0.0142,0.0004,0.0003,0.0002,0.0001,0,0,-0.0211,-0.025,-0.0251,-0.0251,-0.0252,-0.0242,-0.0222,-0.0191,-0.0158,-0.0127,-0.0069,0.0003,0.0043,0.0072,0.0111,0.0164,0.0247,0.0169,0.017,0.0188,0.0335,0.0268,0.0272,0.0262,0.0265,0.0267,0.0308,0,-0.0209,-0.0229,-0.0242,-0.0233,-0.0236,-0.0224,-0.0193,-0.0164,-0.0129,-0.0076,-0.002,0.0051,0.0068,0.013,0.0185,0.0231,0.028,0.0236,0.0281,0.0282,0.0223,0.0284,0.0274,0.0316,0.0319,0.032,0.0321,0,-0.0206,-0.0221,-0.0225,-0.0215,-0.0211,-0.0192,-0.0135,-0.0107,-0.0046,-0.0009,0.0065,0.0107,0.0213,0.0214,0.0324,0.0299,0.0334,0.0353,0.0355,0.0285,0.0236,0.0263,0.034,0.0339,0.0337,0.0336,0.0335,0,-0.0181,-0.0197,-0.0197,-0.0197,-0.0188,-0.0163,-0.0135,-0.0081,-0.0043,0.0054,0.0102,0.0197,0.0281,0.0331,0.0377,0.0378,0.0455,0.0453,0.0413,0.0406,0.0429,0.0418,0.0528,0.0528,0.0528,0.0528,0.0527,0,-0.0166,-0.0164,-0.0183,-0.0183,-0.015,-0.0137,-0.0078,-0.0038,0.0031,0.0079,0.0161,0.0204,0.0324,0.0368,0.0392,0.0424,0.0471,0.0437,0.0427,0.0446,0.0437,0.0435,0.0424,0.0529,0.0529,0.0528,0.0528,0,-0.0141,-0.0161,-0.0161,-0.0155,-0.0144,-0.0112,-0.0055,-0.0017,0.0062,0.0131,0.0175,0.0255,0.0324,0.0382,0.0462,0.0455,0.0474,0.0465,0.0459,0.0444,0.0393,0.0384,0.0459,0.0458,0.0456,0.0455,0.0454,0,-0.0134,-0.0137,-0.0142,-0.014,-0.0136,-0.0091,-0.0066,0.0001,0.0031,0.0125,0.0142,0.0246,0.0295,0.0335,0.0392,0.0438,0.0433,0.0445,0.0457,0.0411,0.0394,0.0387,0.038,0.0452,0.0451,0.0451,0.0451,0,-0.0121,-0.0126,-0.0129,-0.013,-0.0114,-0.0096,-0.0059,-0.0037,0.0035,0.011,0.0132,0.0182,0.0248,0.0297,0.035,0.0362,0.0443,0.043,0.0434,0.0447,0.0403,0.0385,0.038,0.0446,0.0446,0.0447,0.0447,0,-0.0107,-0.011,-0.0126,-0.0117,-0.011,-0.0118,-0.0092,-0.0069,-0.0028,0.0073,0.0054,0.0137,0.021,0.0252,0.0258,0.0312,0.0335,0.0338,0.0348,0.0354,0.0304,0.0232,0.0232,0,0,0,0,0,-0.0094,-0.0108,-0.0115,-0.0123,-0.012,-0.0124,-0.0104,-0.0083,-0.0021,-0.0007,0.0036,0.0079,0.015,0.0155,0.0202,0.0233,0.0338,0.0284,0.0345,0.0418,0.0424,0.0377,0,0,0,0,0,0,-0.0096,-0.0101,-0.012,-0.0134,-0.0142,-0.0148,-0.0147,-0.0112,-0.0111,-0.004,-0.0014,0.0065,0.0121,0.0136,0.0197,0.0214,0.0249,0.0339,0.0339,0.0415,0.042,0.0424,0.0379,0,0,0,0,0]},{"header":{"parameterUnit":"m.s-1","parameterCategory":2,"la1":30.2991,"la2":30.254,"lo1":-89.0895,"lo2":-89.0444,"dy":0.0017,"dx":0.0017,"nx":28,"ny":28,"refTime":"2025-04-22T09:00:00:Z","depth":"4","parameterNumber":3,"parameterNumberName":"V-component_of_CURRENTS"},"data":[0,0,0,0,0,0,0,0,0,0,0,0,0,0,0,0,0,0,0,0,0,0,0,0,0,0,0,0,0,0,0,0,0,0,0,0,0,0,0,0,0,0,0,0,0,0,0,0,0,0,0,0,0,0,0,0,0,0,0.0307,0.0307,0,0.0333,0.0333,0.0333,0.032,0.032,0.0319,0.0319,0.0316,0.0317,0.0317,0,0,0,0,0,0,0,0,0,0,0,0,0,0.0286,0.0286,0.0307,0.0307,0.0308,0.0333,0.0333,0.0333,0.0321,0.032,0.0319,0.0318,0.0316,0.0317,0.0317,0,0,0,0,0,0,0,0,0,0,0,0,0,0.0301,0.0286,0.0307,0.0305,0.0305,0.0333,0.0333,0.0333,0.0321,0.032,0.0319,0.0318,0.0316,0.0317,0.0317,0.0341,0,0,0.032,0.032,0,0,0,0,0,0,0,0,0.03,0.0302,0.0305,0.0305,0.0305,0.0323,0.0325,0.0335,0.0321,0.0314,0.0319,0.0318,0.0317,0.0318,0.0324,0.034,0.034,0.032,0.032,0.0321,0.0321,0,0,0,0,0,0,0,0.0299,0.0301,0.0317,0.0305,0.0306,0.0316,0.0317,0.0327,0.0319,0.0315,0.0314,0.0318,0.0317,0.0323,0.0324,0.034,0.032,0.032,0.0321,0.0321,0.0386,0.0387,0,0,0,0,0,0,0.0296,0.03,0.0316,0.0317,0.0301,0.0317,0.0318,0.0318,0.032,0.032,0.0319,0.0317,0.0323,0.0323,0.0324,0.0368,0.0321,0.0321,0.0322,0.0385,0.0386,0.0388,0,0,0,0,0,0,0.0295,0.0297,0.0315,0.031,0.0313,0.0318,0.0318,0.0319,0.0328,0.0324,0.0322,0.0328,0.0322,0.0323,0.0345,0.0367,0.0322,0.0322,0.0383,0.0385,0.0387,0.0445,0,0,0,0,0,0,0.0295,0.0297,0.0308,0.0309,0.0313,0.0335,0.0319,0.032,0.0332,0.033,0.0331,0.0329,0.0321,0.0344,0.0346,0.0367,0.0323,0.0382,0.0384,0.0386,0.0442,0.0449,0.0455,0,0,0,0,0,0.0294,0.0302,0.0309,0.0311,0.0324,0.0336,0.0339,0.0339,0.0333,0.0343,0.0348,0.033,0.036,0.0346,0.0348,0.037,0.038,0.0383,0.0386,0.0439,0.0447,0.0455,0,0,0,0,0,0,0.03,0.0302,0.0309,0.0318,0.0332,0.0334,0.0348,0.0346,0.0359,0.0359,0.035,0.035,0.0376,0.0368,0.0353,0.0395,0.0365,0.0369,0.0405,0.0413,0.042,0.0421,0.0324,0,0,0,0,0,0.0309,0.0315,0.0322,0.0335,0.0343,0.035,0.0359,0.0357,0.0364,0.0368,0.0373,0.0379,0.0391,0.0397,0.0405,0.0432,0.0411,0.0446,0.0453,0.0459,0.0461,0.0436,0.0441,0.0397,0.0397,0.0397,0,0,0.0314,0.032,0.0322,0.0338,0.035,0.0367,0.0353,0.0366,0.0384,0.0367,0.0401,0.0404,0.0403,0.0433,0.0443,0.0428,0.0466,0.0462,0.0467,0.0467,0.044,0.0444,0.0447,0.0399,0.0398,0.0398,0,0,0.033,0.0336,0.035,0.0362,0.0382,0.0385,0.0391,0.0402,0.0413,0.0448,0.0437,0.0455,0.0481,0.0481,0.0485,0.0534,0.0501,0.0538,0.0574,0.0551,0.0553,0.0556,0.0555,0.0557,0.0542,0.0542,0.0542,0,0.0339,0.0358,0.0358,0.0379,0.0394,0.0395,0.0416,0.043,0.045,0.0463,0.0466,0.0504,0.0504,0.0528,0.055,0.0548,0.0535,0.0544,0.0558,0.0559,0.0561,0.0559,0.056,0.0545,0.0544,0.0544,0.0544,0,0.0367,0.0387,0.0397,0.0423,0.0438,0.0455,0.047,0.0493,0.0511,0.052,0.0557,0.0568,0.0587,0.0593,0.0593,0.0607,0.0597,0.0567,0.0534,0.0568,0.0566,0.0566,0.0549,0.0548,0.0547,0.0546,0,0,0.0375,0.0409,0.0416,0.0436,0.0461,0.0473,0.0509,0.0538,0.0557,0.059,0.0616,0.0653,0.0653,0.0658,0.0654,0.0643,0.0654,0.0618,0.0616,0.0614,0.0619,0.0592,0.0589,0.0621,0.0621,0.0621,0.0621,0,0.0403,0.0444,0.0455,0.0496,0.0517,0.053,0.0564,0.0587,0.0608,0.0633,0.0646,0.0678,0.0678,0.0699,0.0686,0.0658,0.0653,0.0658,0.059,0.0589,0.0556,0.0588,0.062,0.062,0.062,0.062,0.062,0,0.0435,0.0457,0.0501,0.0534,0.0546,0.0577,0.0619,0.0649,0.0676,0.0697,0.0721,0.072,0.0739,0.0722,0.0698,0.0701,0.0673,0.0646,0.0644,0.0595,0.0561,0.0574,0.0619,0.062,0.062,0.062,0.062,0,0.0447,0.0489,0.0525,0.0538,0.0577,0.0612,0.0645,0.0678,0.0713,0.0745,0.077,0.0768,0.0797,0.0747,0.0719,0.0706,0.0672,0.0639,0.0591,0.0589,0.0586,0.0583,0.0612,0.0612,0.0612,0.0612,0.0612,0,0.0469,0.0497,0.0541,0.0561,0.0611,0.064,0.07,0.0728,0.0775,0.0813,0.0815,0.0825,0.0804,0.078,0.0725,0.0671,0.0681,0.0606,0.0584,0.0615,0.0615,0.0587,0.0584,0.0612,0.0612,0.0612,0.0612,0,0.0473,0.0504,0.054,0.0592,0.0621,0.0661,0.0749,0.0782,0.0837,0.0886,0.0909,0.0895,0.0868,0.0834,0.0764,0.0702,0.0631,0.0607,0.0673,0.0653,0.0564,0.0564,0.0547,0.0546,0.0545,0.0544,0.0544,0,0.0474,0.0498,0.0559,0.059,0.0623,0.0697,0.0745,0.0816,0.0845,0.091,0.0913,0.0926,0.091,0.0783,0.0739,0.0654,0.0629,0.0598,0.0558,0.0575,0.0556,0.0558,0.0559,0.0542,0.0542,0.0542,0.0542,0,0.0467,0.0495,0.0517,0.0583,0.0642,0.0704,0.0778,0.08,0.0877,0.0936,0.0904,0.0866,0.0836,0.0747,0.0717,0.0636,0.0613,0.0588,0.0589,0.0551,0.0569,0.0551,0.0554,0.0539,0.0539,0.0539,0.054,0,0.0453,0.0468,0.0508,0.0563,0.0631,0.0686,0.073,0.0762,0.0805,0.0874,0.085,0.0834,0.0843,0.0737,0.0678,0.0636,0.0601,0.0543,0.0545,0.0548,0.0543,0.0566,0.0522,0,0,0,0,0,0.0439,0.0459,0.0493,0.0547,0.0608,0.0659,0.0732,0.0769,0.0841,0.0811,0.084,0.0802,0.0734,0.0677,0.0627,0.0656,0.06,0.0591,0.0536,0.0522,0.0526,0.0515,0,0,0,0,0,0,0.0432,0.046,0.0476,0.0522,0.0559,0.0632,0.0677,0.0727,0.0695,0.0757,0.0701,0.0753,0.0668,0.0769,0.0614,0.0607,0.0551,0.0586,0.0583,0.052,0.0523,0.0526,0.0516,0,0,0,0,0]}]]